NOAA 21 (JPSS-2)

Last updated on Wed Sep 17 2025 00:02:23 GMT+0000 (Coordinated Universal Time)

1 54234U 22150A 25259.55403432 .00000060 00000+0 49436-4 0 9992 2 54234 98.7311 197.0115 0000569 219.7846 140.3288 14.19559125147729
UTC large
Height (km)
Speed (km/s)
/
Latitude / Longitude
Inclination (degrees)
Orbital Period (minutes)
Azimuth
Elevation
Range (km)
Doppler Factor

Next 0 passes for location: London (51.5072 / 0.1276)

Sorry there are no passes over London.